Retour au catalogue

CZ-6A DEB

ActifSSO
NORAD 55872·DEBRIS·🇨🇳 China

Lancé Nov 11, 2022 depuis Taiyuan Satellite Launch Center

Loading…

Prochains Passages (prochaines 24 heures)

TLE

FraisSource: Space-Track

Époque: Sep 14, 2026, 10:57 UTC

1 55872U 22151ZU  26257.45677350  .00000159  00000-0  11119-3 0  9998
2 55872  98.8394 257.9860 0041187  60.6748 299.8528 14.11408870185639

Suivez CZ-6A DEB en temps réel avec AllMySat

Download on the App Store